EWG28M EDDN-EDDB

Flight info

Callsign EWG28M
Flight time 0h 38m
Altitude 27000
Route ERETO1G ERETO Z715 ABKIS Q240 BESIP T203 ATGUP ATGUP1R
Aircraft A319/M-SDE3FGHIRWY/LB1

Departure

Time 2026-05-06 13:35
Airport Nuremberg Airport (EDDN)

Arrival

Time 2026-05-06 14:13
Airport Berlin Brandenburg Airport (EDDB)
Time Latitude Longitude Altitude Speed Heading
2026-05-06 13:09 49.49504 11.07856 1029 ft 0 kts 188°
2026-05-06 13:25 49.49512 11.07858 1028 ft 4 kts 188°
2026-05-06 13:26 49.49538 11.07864 1029 ft 4 kts 185°
2026-05-06 13:26 49.49564 11.07864 1028 ft 4 kts 161°
2026-05-06 13:26 49.49577 11.07849 1029 ft 1 kts 98°
2026-05-06 13:30 49.49573 11.07900 1030 ft 11 kts 97°
2026-05-06 13:30 49.49561 11.08035 1030 ft 14 kts 97°
2026-05-06 13:30 49.49545 11.08189 1029 ft 15 kts 99°
2026-05-06 13:31 49.49537 11.08327 1033 ft 11 kts 71°
2026-05-06 13:31 49.49602 11.08377 1031 ft 12 kts 28°
2026-05-06 13:31 49.49610 11.08491 1032 ft 11 kts 98°
2026-05-06 13:31 49.49599 11.08608 1033 ft 13 kts 98°
2026-05-06 13:32 49.49585 11.08766 1035 ft 15 kts 98°
2026-05-06 13:32 49.49570 11.08923 1037 ft 15 kts 98°
2026-05-06 13:32 49.49555 11.09080 1038 ft 15 kts 99°
2026-05-06 13:32 49.49539 11.09237 1040 ft 14 kts 99°
2026-05-06 13:33 49.49541 11.09375 1042 ft 12 kts 56°
2026-05-06 13:33 49.49592 11.09483 1042 ft 13 kts 53°
2026-05-06 13:33 49.49651 11.09565 1045 ft 11 kts 10°
2026-05-06 13:33 49.49701 11.09519 1044 ft 9 kts 276°
2026-05-06 13:34 49.49703 11.09469 1043 ft 21 kts 275°
2026-05-06 13:34 49.49755 11.08919 1035 ft 82 kts 279°
2026-05-06 13:34 49.49874 11.07768 1033 ft 134 kts 279°
2026-05-06 13:34 49.50024 11.06209 1385 ft 146 kts 279°
2026-05-06 13:35 49.50169 11.04642 1943 ft 148 kts 278°
2026-05-06 13:35 49.50325 11.03052 2425 ft 156 kts 277°
2026-05-06 13:35 49.50497 11.01287 2725 ft 178 kts 277°
2026-05-06 13:35 49.50693 10.99276 3067 ft 202 kts 277°
2026-05-06 13:36 49.50915 10.97021 3437 ft 229 kts 277°
2026-05-06 13:36 49.51247 10.94499 3938 ft 255 kts 290°
2026-05-06 13:36 49.52412 10.92364 4694 ft 271 kts 328°
2026-05-06 13:36 49.54227 10.91526 5649 ft 279 kts 354°
2026-05-06 13:37 49.56188 10.91547 6611 ft 284 kts
2026-05-06 13:37 49.58169 10.91865 7527 ft 289 kts
2026-05-06 13:37 49.60182 10.92223 8408 ft 294 kts
2026-05-06 13:37 49.62241 10.92518 9272 ft 300 kts
2026-05-06 13:38 49.64342 10.92727 10038 ft 309 kts
2026-05-06 13:38 49.66571 10.92871 10347 ft 332 kts
2026-05-06 13:38 49.68941 10.93408 10606 ft 356 kts 14°
2026-05-06 13:38 49.71278 10.94848 11178 ft 366 kts 29°
2026-05-06 13:39 49.73365 10.97129 11852 ft 370 kts 41°
2026-05-06 13:39 49.75335 10.99733 12555 ft 375 kts 41°
2026-05-06 13:39 49.77330 11.02378 13254 ft 380 kts 41°
2026-05-06 13:39 49.79346 11.05052 13902 ft 384 kts 41°
2026-05-06 13:40 49.81386 11.07762 14537 ft 388 kts 41°
2026-05-06 13:40 49.83298 11.10726 15166 ft 391 kts 51°
2026-05-06 13:40 49.84834 11.14141 15810 ft 393 kts 62°
2026-05-06 13:40 49.86062 11.17988 16482 ft 395 kts 66°
2026-05-06 13:41 49.87249 11.21850 17114 ft 399 kts 66°
2026-05-06 13:41 49.88452 11.25750 17744 ft 403 kts 66°
2026-05-06 13:41 49.89655 11.29644 18287 ft 407 kts 66°
2026-05-06 13:41 49.90885 11.33624 18812 ft 411 kts 66°
2026-05-06 13:42 49.92136 11.37629 19350 ft 414 kts 64°
2026-05-06 13:42 49.93692 11.41427 19882 ft 419 kts 54°
2026-05-06 13:42 49.95645 11.44817 20396 ft 424 kts 46°
2026-05-06 13:42 49.97744 11.48063 20841 ft 429 kts 44°
2026-05-06 13:43 50.00179 11.50770 21285 ft 434 kts 27°
2026-05-06 13:43 50.02933 11.52732 21757 ft 437 kts 23°
2026-05-06 13:43 50.05721 11.54648 22211 ft 440 kts 23°
2026-05-06 13:43 50.08534 11.56570 22684 ft 443 kts 23°
2026-05-06 13:44 50.11359 11.58503 23199 ft 444 kts 23°
2026-05-06 13:44 50.14194 11.60453 23630 ft 447 kts 23°
2026-05-06 13:44 50.17048 11.62422 24002 ft 450 kts 23°
2026-05-06 13:44 50.19920 11.64410 24353 ft 453 kts 23°
2026-05-06 13:45 50.22807 11.66407 24712 ft 456 kts 23°
2026-05-06 13:45 50.28651 11.70446 25396 ft 462 kts 23°
2026-05-06 13:45 50.31561 11.72458 25749 ft 465 kts 23°
2026-05-06 13:46 50.34529 11.74514 26104 ft 468 kts 23°
2026-05-06 13:46 50.37511 11.76584 26438 ft 471 kts 23°
2026-05-06 13:46 50.40518 11.78679 26732 ft 474 kts 23°
2026-05-06 13:46 50.43528 11.80782 26802 ft 474 kts 23°
2026-05-06 13:47 50.46538 11.82886 26796 ft 473 kts 23°
2026-05-06 13:47 50.49549 11.84994 26791 ft 473 kts 23°
2026-05-06 13:47 50.52553 11.87099 26791 ft 473 kts 23°
2026-05-06 13:47 50.55557 11.89207 26777 ft 473 kts 23°
2026-05-06 13:48 50.58563 11.91316 26774 ft 473 kts 23°
2026-05-06 13:48 50.61571 11.93429 26772 ft 473 kts 23°
2026-05-06 13:48 50.64578 11.95550 26765 ft 473 kts 23°
2026-05-06 13:48 50.67581 11.97675 26762 ft 473 kts 24°
2026-05-06 13:49 50.70583 11.99803 26758 ft 473 kts 24°
2026-05-06 13:49 50.73586 12.01936 26766 ft 473 kts 23°
2026-05-06 13:49 50.76589 12.04065 26763 ft 473 kts 23°
2026-05-06 13:49 50.79597 12.06196 26761 ft 473 kts 23°
2026-05-06 13:50 50.82602 12.08325 26759 ft 473 kts 23°
2026-05-06 13:50 50.85574 12.10433 26761 ft 473 kts 23°
2026-05-06 13:50 50.88576 12.12566 26764 ft 473 kts 23°
2026-05-06 13:50 50.91578 12.14707 26761 ft 473 kts 23°
2026-05-06 13:51 50.94580 12.16854 26772 ft 473 kts 23°
2026-05-06 13:51 50.97586 12.19007 26773 ft 473 kts 23°
2026-05-06 13:51 51.00587 12.21159 26768 ft 474 kts 23°
2026-05-06 13:51 51.03589 12.23310 26766 ft 474 kts 23°
2026-05-06 13:52 51.05581 12.24738 26765 ft 474 kts 23°
2026-05-06 13:52 51.08596 12.26904 26765 ft 474 kts 23°
2026-05-06 13:52 51.11605 12.29070 26764 ft 474 kts 23°
2026-05-06 13:52 51.14611 12.31240 26763 ft 474 kts 23°
2026-05-06 13:53 51.17618 12.33415 26766 ft 474 kts 23°
2026-05-06 13:53 51.20634 12.35600 26756 ft 475 kts 23°
2026-05-06 13:53 51.23642 12.37779 26750 ft 475 kts 23°
2026-05-06 13:53 51.26609 12.39933 26772 ft 459 kts 23°
2026-05-06 13:54 51.29456 12.42007 26768 ft 443 kts 23°
2026-05-06 13:54 51.32220 12.44022 26647 ft 433 kts 22°
2026-05-06 13:54 51.34985 12.46037 25885 ft 439 kts 22°
2026-05-06 13:54 51.37781 12.48074 25135 ft 443 kts 22°
2026-05-06 13:55 51.40557 12.50105 24430 ft 446 kts 22°
2026-05-06 13:55 51.43380 12.52171 23811 ft 445 kts 22°
2026-05-06 13:55 51.46194 12.54231 23200 ft 443 kts 22°
2026-05-06 13:55 51.48985 12.56278 22513 ft 440 kts 22°
2026-05-06 13:56 51.51764 12.58319 21856 ft 437 kts 23°
2026-05-06 13:56 51.54517 12.60344 21278 ft 433 kts 23°
2026-05-06 13:56 51.57235 12.62348 20840 ft 425 kts 23°
2026-05-06 13:56 51.59907 12.64316 20455 ft 419 kts 23°
2026-05-06 13:57 51.62537 12.66254 20082 ft 412 kts 22°
2026-05-06 13:57 51.65113 12.68156 19790 ft 403 kts 23°
2026-05-06 13:57 51.67609 12.70006 19760 ft 386 kts 23°
2026-05-06 13:57 51.69998 12.71780 19769 ft 369 kts 22°
2026-05-06 13:58 51.72282 12.73481 19769 ft 356 kts 22°
2026-05-06 13:58 51.74518 12.75142 19771 ft 352 kts 22°
2026-05-06 13:58 51.76742 12.76788 19772 ft 351 kts 22°
2026-05-06 13:58 51.78939 12.78414 19569 ft 353 kts 22°
2026-05-06 13:59 51.81088 12.80391 19075 ft 358 kts 33°
2026-05-06 13:59 51.83126 12.82731 18601 ft 359 kts 35°
2026-05-06 13:59 51.85139 12.85081 18116 ft 354 kts 35°
2026-05-06 13:59 51.87052 12.87517 17580 ft 347 kts 47°
2026-05-06 14:00 51.88567 12.90559 17058 ft 347 kts 54°
2026-05-06 14:00 51.89984 12.93705 16530 ft 345 kts 55°
2026-05-06 14:00 51.91382 12.96848 16015 ft 343 kts 55°
2026-05-06 14:00 51.92766 12.99978 15507 ft 341 kts 55°
2026-05-06 14:01 51.94137 13.03100 15009 ft 340 kts 55°
2026-05-06 14:01 51.95505 13.06229 14523 ft 338 kts 55°
2026-05-06 14:01 51.96853 13.09330 14088 ft 334 kts 55°
2026-05-06 14:01 51.98179 13.12393 13660 ft 331 kts 55°
2026-05-06 14:02 51.99490 13.15435 13202 ft 327 kts 55°
2026-05-06 14:02 52.00785 13.18447 12759 ft 323 kts 55°
2026-05-06 14:02 52.02060 13.21422 12336 ft 319 kts 55°
2026-05-06 14:02 52.03300 13.24319 11930 ft 315 kts 55°
2026-05-06 14:03 52.04575 13.27177 11529 ft 310 kts 47°
2026-05-06 14:03 52.06282 13.29207 11126 ft 301 kts 19°
2026-05-06 14:03 52.08287 13.29835 10719 ft 290 kts 352°
2026-05-06 14:03 52.10166 13.28991 10308 ft 276 kts 324°
2026-05-06 14:04 52.11525 13.26940 9903 ft 264 kts 300°
2026-05-06 14:04 52.12475 13.24410 9473 ft 260 kts 295°
2026-05-06 14:04 52.13358 13.21870 9046 ft 254 kts 295°
2026-05-06 14:04 52.14209 13.19404 8659 ft 246 kts 295°
2026-05-06 14:05 52.15039 13.16997 8289 ft 244 kts 295°
2026-05-06 14:05 52.15870 13.14577 7906 ft 245 kts 295°
2026-05-06 14:05 52.16695 13.12177 7511 ft 240 kts 295°
2026-05-06 14:05 52.17499 13.09834 7174 ft 233 kts 295°
2026-05-06 14:06 52.18279 13.07577 6847 ft 224 kts 297°
2026-05-06 14:06 52.19345 13.05768 6515 ft 224 kts 326°
2026-05-06 14:06 52.20854 13.05185 6178 ft 229 kts
2026-05-06 14:06 52.22354 13.06063 5913 ft 235 kts 29°
2026-05-06 14:07 52.23675 13.07627 5719 ft 232 kts 34°
2026-05-06 14:07 52.24935 13.09209 5269 ft 230 kts 36°
2026-05-06 14:07 52.25969 13.11176 4788 ft 228 kts 65°
2026-05-06 14:07 52.26535 13.13510 4502 ft 215 kts 69°
2026-05-06 14:08 52.27077 13.15737 4210 ft 208 kts 69°
2026-05-06 14:08 52.27601 13.17898 3941 ft 202 kts 67°
2026-05-06 14:08 52.28107 13.19996 3665 ft 195 kts 67°
2026-05-06 14:08 52.28598 13.22032 3415 ft 190 kts 67°
2026-05-06 14:09 52.29074 13.24008 3174 ft 184 kts 67°
2026-05-06 14:09 52.29532 13.25912 2927 ft 176 kts 66°
2026-05-06 14:09 52.29975 13.27755 2690 ft 172 kts 67°
2026-05-06 14:09 52.30412 13.29572 2461 ft 171 kts 67°
2026-05-06 14:10 52.30844 13.31374 2230 ft 169 kts 67°
2026-05-06 14:10 52.31267 13.33136 2007 ft 168 kts 67°
2026-05-06 14:10 52.31682 13.34869 1779 ft 156 kts 67°
2026-05-06 14:10 52.32050 13.36409 1576 ft 137 kts 67°
2026-05-06 14:11 52.32389 13.37826 1396 ft 131 kts 67°
2026-05-06 14:11 52.32713 13.39180 1219 ft 127 kts 67°
2026-05-06 14:11 52.33032 13.40513 1046 ft 125 kts 66°
2026-05-06 14:11 52.33347 13.41834 868 ft 124 kts 66°
2026-05-06 14:12 52.33663 13.43155 691 ft 125 kts 67°
2026-05-06 14:12 52.33981 13.44480 532 ft 125 kts 66°
2026-05-06 14:12 52.34302 13.45801 331 ft 124 kts 65°
2026-05-06 14:12 52.34618 13.47102 171 ft 123 kts 67°
2026-05-06 14:13 52.34890 13.48249 154 ft 89 kts 71°
2026-05-06 14:13 52.35038 13.48948 154 ft 45 kts 68°
2026-05-06 14:13 52.35156 13.49245 154 ft 22 kts 47°
2026-05-06 14:13 52.35253 13.49388 154 ft 20 kts 38°
2026-05-06 14:14 52.35340 13.49500 154 ft 14 kts 37°
2026-05-06 14:14 52.35418 13.49598 154 ft 14 kts 39°
2026-05-06 14:14 52.35467 13.49749 154 ft 17 kts 70°
2026-05-06 14:14 52.35510 13.49938 154 ft 19 kts 67°
2026-05-06 14:15 52.35563 13.50150 154 ft 21 kts 70°
2026-05-06 14:15 52.35616 13.50367 155 ft 17 kts 68°
2026-05-06 14:15 52.35650 13.50508 155 ft 12 kts 69°
2026-05-06 14:15 52.35679 13.50627 155 ft 11 kts 68°
2026-05-06 14:16 52.35737 13.50690 155 ft 12 kts 348°
2026-05-06 14:16 52.35821 13.50637 155 ft 14 kts 339°
2026-05-06 14:16 52.35902 13.50640 155 ft 10 kts 89°
2026-05-06 14:16 52.35898 13.50746 155 ft 11 kts 77°
2026-05-06 14:17 52.35928 13.50868 155 ft 13 kts 68°
2026-05-06 14:17 52.35964 13.51017 155 ft 15 kts 68°
2026-05-06 14:17 52.36004 13.51190 155 ft 16 kts 69°
2026-05-06 14:17 52.36047 13.51371 155 ft 17 kts 68°
2026-05-06 14:18 52.36080 13.51512 155 ft 6 kts 69°
2026-05-06 14:18 52.36113 13.51512 155 ft 6 kts 330°
2026-05-06 14:18 52.36160 13.51482 155 ft 6 kts 340°
2026-05-06 14:18 52.36167 13.51478 155 ft 0 kts 339°